Regional Weather Roundup
Issued by NWS

Home | Current Version | Previous Version | Graphics & Text | Print | Product List | Glossary On
Versions: 1 2 3 4 5 6 7 8 9 10 11 12 13 14 15 16 17 18 19 20 21 22 23 24 25 26 27 28 29 30 31 32 33 34 35 36 37 38 39 40 41 42 43 44 45 46 47 48 49 50
000
ASUS43 KMPX 041910
RWRMN
WEATHER ROUNDUP FOR MINNESOTA
NATIONAL WEATHER SERVICE TWIN CITIES/CHANHASSEN MN
200 PM CDT FRI SEP 04 2015


NOTE: "FAIR" INDICATES FEW OR NO CLOUDS BELOW 12,000 FEET WITH NO
SIGNIFICANT WEATHER AND/OR OBSTRUCTIONS TO VISIBILITY. N/A MEANS
CURRENT SKY AND/OR WEATHER CONDITIONS ARE NOT AVAILABLE.

MNZ060>063-068>070-042000-
   Twin Cities Metro

CITY           SKY/WX    TMP DP  RH WIND       PRES   REMARKS
TWIN CITIES    MOSUNNY   86  72  62 SE9       29.92S HX  92
ST PAUL        SUNNY     86  74  67 SE10      29.93R HX  94
CRYSTAL        MOSUNNY   88  71  57 SE10      29.91S HX  94
BLAINE         MOSUNNY   88  72  58 SE8       29.92S HX  94
LAKEVILLE      SUNNY     86  73  66 SE8       29.93S HX  93
EDEN PRAIRIE   MOSUNNY   88  73  61 E7        29.90F HX  95
SOUTH ST PAUL  SUNNY     86  72  62 SE8       29.93S HX  92
LAKE ELMO      FAIR      84  73  70 SE7       29.95S HX  91
$$
MNZ001>005-007-008-013>017-022>024-027-028-042000-
   Northwest Minnesota

CITY           SKY/WX    TMP DP  RH WIND       PRES   REMARKS
BEMIDJI        CLOUDY    79  70  73 SE12      29.88F
HALLOCK        TSTM      73  72  94 SE3       29.78F
ROSEAU         CLOUDY    81  72  74 S9        29.81S
WARROAD        MOSUNNY   79  73  83 E6        29.82F
THIEF RVR FALL CLOUDY    81  72  74 SE13      29.81F
CROOKSTON      CLOUDY    84  72  65 S18       29.79S
FOSSTON        CLOUDY    81  68  65 SE15G22   29.84F
DETROIT LAKES  CLOUDY    79  70  73 S5        29.86F
MOORHEAD       LGT RAIN  79  70  73 SW3       29.82S
PARK RAPIDS    CLOUDY    83  69  62 S16       29.88F
MAHNOMEN       FAIR      80  71  75 S10       29.83F
$$
MNZ006-009>011-018-025>026-042000-
   North Central Minnesota

CITY           SKY/WX    TMP DP  RH WIND       PRES   REMARKS
BAUDETTE       SUNNY     85  71  63 SE16G30   29.83F HX  90
FLAG ISLAND    MOSUNNY   79  70  73 SE6       29.83F
INTL FALLS     MOSUNNY   82  69  64 SE13G22   29.90F
WASKISH        SUNNY     82  72  69 SE10G22   29.85F
BIG FORK       SUNNY     82  72  69 SE12G20   29.91F
LONGVILLE      MOSUNNY   82  72  69 SE13      29.90S
GRAND RAPIDS     N/A     82  70  65 SE13G23   29.93F
CRANE LAKE     SUNNY     82  63  51 SE8       29.97S
ORR            SUNNY     82  64  54 SE14G21   29.92F
COOK           SUNNY     82  68  61 SE13      29.95F
WALKER         CLOUDY    79  69  71 SE7       29.90S
$$
MNZ012-019>021-037-042000-
   Northeast Minnesota

CITY           SKY/WX    TMP DP  RH WIND       PRES   REMARKS
DULUTH         MOSUNNY   76  65  68 E14       29.99F
ELY            SUNNY     82  59  44 S12G18    29.99F
HIBBING        MOSUNNY   82  70  66 SE15G26   29.95F
EVELETH        SUNNY     81  66  61 SE17      29.98F
DULUTH HARBOR  SUNNY     64  61  88 E9        30.00F
TWO HARBORS    SUNNY     79  68  69 E10       29.99F
SILVER BAY     SUNNY     73  63  68 E13       30.01F
GRAND MARAIS     N/A     64  56  75 E9        30.03F
G MARAIS ARPRT SUNNY     73  57  56 E7G16     30.09F
$$
MNZ029>031-032-039>041-046>048-054>057-064-042000-
   West Central Minnesota

CITY           SKY/WX    TMP DP  RH WIND       PRES   REMARKS
FERGUS FALLS   CLOUDY    77  72  83 SE5       29.82S
WHEATON        CLOUDY    75  72  88 E3        29.84R
MORRIS         CLOUDY    82  70  65 E9        29.83F
ALEXANDRIA     CLOUDY    83  71  67 SE10      29.89F
ELBOW LAKE     FAIR      76  71  83 SE5       29.85F HAZE
WADENA         CLOUDY    82  72  69 SE9       29.86F
GLENWOOD       CLOUDY    84  72  65 SE9       29.88F
APPLETON       CLOUDY    82  70  65 SE12      29.82F
BENSON         CLOUDY    84  68  58 SE5       29.84F
ORTONVILLE     CLOUDY    81  72  74 SE7       29.83S
MADISON        CLOUDY    82  72  69 SE5       29.84S
WILLMAR        FAIR      88  72  58 SE7       29.88S HX  94
$$
MNZ033>034-036-042>043-049>051-058-059-042000-
   Central Minnesota

CITY           SKY/WX    TMP DP  RH WIND       PRES   REMARKS
ST CLOUD       MOSUNNY   86  73  65 S12       29.89F HX  93
SAUK CENTRE    FAIR      83  72  68 SE8       29.88F
PAYNESVILLE    PTSUNNY   86  70  59 E7        29.89F HX  91
AITKIN         MOSUNNY   84  73  70 SE9       29.91F HX  91
PINE RIVER     PTSUNNY   81  72  74 SE10      29.94S
BRAINERD       PTSUNNY   83  70  64 SE10      29.91F
STAPLES        PTSUNNY   81  70  69 SE9       29.89F
LONG PRAIRIE   FAIR      82  72  69 E9        29.89F
LITTLE FALLS   PTSUNNY   82  70  65 SE10G16   29.90F
LITCHFIELD     MOSUNNY   88  75  66 SE9       29.88F HX  97
BUFFALO        MOSUNNY   85  71  63 E7        29.91F HX  90
MAPLE LAKE     MOSUNNY   86  76  71 SE6       29.91F HX  97
$$
MNZ037-044-045-052-053-042000-
   East Central Minnesota

CITY           SKY/WX    TMP DP  RH WIND       PRES   REMARKS
PRINCETON      MOSUNNY   86  73  66 SE10      29.91F HX  93
MORA           MOSUNNY   82  70  65 SE8       29.96S
CAMBRIDGE        N/A     88  72  58 E8        29.92S HX  94
RUSH CITY      SUNNY     84  71  64 SE9       29.94S
MOOSE LAKE     SUNNY     82  70  65 SE5       29.93F
HINCKLEY       FAIR      84  72  65 E9        29.94F
CLOQUET        SUNNY     73  63  68 E9        29.98F
MCGREGOR       MOSUNNY   81  70  69 SE12G17   29.94F
$$
MNZ071>073-080-081-089-090-097-098-042000-
   Southwest Minnesota

CITY           SKY/WX    TMP DP  RH WIND       PRES   REMARKS
MONTEVIDEO     PTSUNNY   90  70  51 S8        29.86F HX  95
GRANITE FALLS  PTSUNNY   85  71  63 SE9       29.88S
CANBY          CLOUDY    82  69  64 S5        29.86S
MARSHALL       PTSUNNY   84  68  58 S13       29.88F
REDWOOD FALLS  MOSUNNY   88  70  55 S12       29.87F HX  93
OLIVIA         PTSUNNY   86  66  51 S9        29.88R
PIPESTONE      LGT RAIN  77  70  78 S6        29.90S
WINDOM         MOSUNNY   84  68  58 S10       29.91F
WORTHINGTON    CLOUDY    79  66  65 S8        29.91S
JACKSON        PTSUNNY   82  70  65 S10       29.93S
TRACY          PTSUNNY   82  71  70 S9        29.89F
SLAYTON        CLOUDY    79  71  75 SE8       29.91F
$$
MNZ065>067-074>077-082>085-091>093-042000-
   South Central Minnesota

CITY           SKY/WX    TMP DP  RH WIND       PRES   REMARKS
MANKATO        SUNNY     88  72  58 S10G17    29.91S HX  94
NEW ULM        PTSUNNY   86  72  62 S7        29.89F HX  92
ST JAMES       MOSUNNY   88  73  62 S12       29.91F HX  96
FAIRMONT       MOSUNNY   86  70  58 S16       29.91F HX  90
GLENCOE        MOSUNNY   90  74  59 SE6       29.90S HX  99
FARIBAULT      SUNNY     86  73  66 SE12      29.93S HX  93
OWATONNA       SUNNY     88  73  62 SE12G17   29.94R HX  96
WASECA         SUNNY     82  72  69 SE9       29.94R
ALBERT LEA     SUNNY     88  72  58 SE10      29.94R HX  94
$$
MNZ078>079-086>088-094>096-042000-
   Southeast Minnesota

CITY           SKY/WX    TMP DP  RH WIND       PRES   REMARKS
ROCHESTER      SUNNY     86  72  62 SE12      29.97F HX  92
RED WING       SUNNY     86  70  58 SE13      29.93F HX  90
STANTON        SUNNY     87  72  60 SE8       29.92S HX  94
DODGE CENTER   SUNNY     84  72  65 SE9       29.96S
WINONA         SUNNY     84  70  61 E10       29.97S
AUSTIN         SUNNY     86  73  66 S9        29.95S HX  93
PRESTON        MOSUNNY   84  70  62 SE10      29.99S
$$
ABBREVIATIONS USED IN REMARKS
   TC - TEMPERATURES IN CELSIUS
  WCI - WIND CHILL INDEX
   HX - HEAT INDEX
  VSB - VISIBILITY
$$



USA.gov is the U.S. government's official web portal to all federal, state and local government web resources and services.